Location: Pedholt
(56.0260°N, 10.2097°E)
Time: 05:34:51
(UTC+00:00)

SR - Pass Details

Date: 30 July 2021
Orbit: 581 x 874 km, 66.7° (Epoch: 24 September)

Event Time Altitude Azimuth Distance (km) Brightness Sun altitude
Rises 08:51:44 0° 265° (W) 3,386 ? 42.6°
Reaches altitude 10° 08:54:31 10° 275° (W) 2,415 ? 42.9°
Maximum altitude 08:59:30 33° 339° (NNW) 1,306 ? 43.5°
Drops below altitude 10° 09:04:09 10° 43° (NE) 2,251 ? 44.0°
Sets 09:06:40 0° 53° (NE) 3,122 ? 44.2°
